Home > Weather > Olten > Past weeks

Flag for Switzerland Weather for the Past 2 Weeks in Olten, Solothurn, Switzerland

Now
31 °F

Chilly.


Feels Like: 31 °F
Forecast: 35 / 51 °F
Wind: No wind

Location: Wynau

Current Time: Feb 7, 2016 at 7:40:42 AM

Latest Report: Feb 7, 2016 at 6:00 AM


Visibility: N/A

Pressure: 29.75 "Hg

Humidity: 100%

Dew point: 31 °F

Location of OltenLocation

Historic Weather in Olten — Graph

°F

Olten Temperature Yesterday

Maximum temperature yesterday: 48 °F (at 4:00 PM)
Minimum temperature yesterday: 33 °F (at 1:00 AM)
Average temperature yesterday: 38 °F

High & Low Weather Summary for the Past Weeks

 TemperatureHumidityPressure
High56 °F (Feb 1, 3:00 PM)100% (Jan 23, 7:00 PM)30.71 "Hg (Jan 23, 7:00 PM)
Low27 °F (Jan 24, 2:00 AM)45% (Jan 30, 3:00 PM)29.75 "Hg (Feb 7, 6:00 AM)
Average41 °F88%30.36 "Hg
* Reported Jan 23 6:00 AM — Feb 7 6:00 AM, Olten, Weather by CustomWeather, © 2016

Note: Actual official high and low records may vary slightly from our data, if they occured in-between our weather recording intervals... More about our weather records

Advertising

Olten Weather History for the Previous 24 Hours

 ConditionsComfort  
Time TempWeatherWind HumidityBarometerVisibility
6:00 AM
Sun, Feb 7
31 °FChilly.No wind100%29.75 "HgN/A
5:00 AM31 °FChilly.1 mph100%29.77 "HgN/A
9:00 PM
Sat, Feb 6
35 °FChilly.No wind100%29.91 "HgN/A
8:00 PM36 °FChilly.2 mph95%29.94 "HgN/A
7:00 PM38 °FChilly.No wind97%29.95 "HgN/A
6:00 PM41 °FQuite cool.1 mph93%29.97 "HgN/A
5:00 PM44 °FQuite cool.2 mph86%29.98 "HgN/A
4:00 PM48 °FCool.5 mph67%30.00 "HgN/A
3:00 PM47 °FCool.5 mph76%30.04 "HgN/A
2:00 PM43 °FQuite cool.2 mph86%30.10 "HgN/A
1:00 PM41 °FQuite cool.3 mph89%30.15 "HgN/A
12:00 PM39 °FChilly.3 mph93%30.20 "HgN/A
11:00 AM37 °FChilly.5 mph95%30.23 "HgN/A
10:00 AM36 °FChilly.3 mph97%30.24 "HgN/A
9:00 AM35 °FChilly.5 mph98%30.24 "HgN/A
8:00 AM35 °FChilly.3 mph99%30.23 "HgN/A
7:00 AM33 °FChilly.2 mph99%30.24 "HgN/A
Weather by CustomWeather, © 2016

See weather overviewHow to use our weather pages